This demonstration page uses our WeatherBlox Daily Observations layout. Learn more.

Left ArrowRight Arrow

36.19886, -115.1175

Hourly Observations for August 14, 2021

Temp ( °F °C ) Dew Point ( °F °C ) Humidity (%) Winds ( mph kmh ) Pressure ( in mb ) Visibility ( mi km ) Precip ( " mm )
12:53 am 00:53 Clear 92 33.3 59 15 33 33 N 3 6 29.97 1015 10 16 0.00 0.00
1:53 am 01:53 Clear 91 32.8 59 15 34 34 NNE 5 7 29.95 1014 10 16 0.00 0.00
2:53 am 02:53 Clear 89 31.7 59 15 36 36 Calm 29.96 1015 10 16 0.00 0.00
3:53 am 03:53 Clear 87 30.6 58 14.4 37 37 Calm 29.98 1015 10 16 0.00 0.00
4:53 am 04:53 Clear 87 30.6 57 13.9 36 36 N 5 7 29.99 1016 10 16 0.00 0.00
5:53 am 05:53 Clear 85 29.4 57 13.9 39 39 E 5 7 30.00 1016 10 16 0.00 0.00
6:53 am 06:53 Sunny 86 30 58 14.4 39 39 E 5 7 30.02 1017 10 16 0.00 0.00
7:53 am 07:53 Sunny 88 31.1 62 16.7 42 42 E 9 15 30.03 1017 10 16 0.00 0.00
8:53 am 08:53 Sunny 90 32.2 60 15.6 37 37 Calm 30.02 1017 10 16 0.00 0.00
9:53 am 09:53 Sunny 91 32.8 61 16.1 37 37 SE 7 11 30.03 1017 10 16 0.00 0.00
10:53 am 10:53 Sunny 96 35.6 61 16.1 31 31 NNE 5 7 30.02 1017 10 16 0.00 0.00
11:53 am 11:53 Sunny 97 36.1 61 16.1 30 30 undefined N/A 30.01 1016 10 16 0.00 0.00
12:53 pm 12:53 Sunny 99 37.2 60 15.6 28 28 SSE 6 9 29.98 1015 10 16 0.00 0.00
1:53 pm 13:53 Sunny 100 37.8 58 14.4 25 25 undefined N/A 29.96 1015 10 16 0.00 0.00
2:53 pm 14:53 Sunny 102 38.9 59 15 24 24 VRB 6 9 29.94 1014 10 16 0.00 0.00
3:53 pm 15:53 Sunny 103 39.4 58 14.4 23 23 SE 8 13 29.91 1013 10 16 0.00 0.00
4:53 pm 16:53 Sunny 104 40 57 13.9 21 21 VRB 5 7 29.88 1012 10 16 0.00 0.00
5:53 pm 17:53 Sunny 103 39.4 57 13.9 22 22 E 8 13 29.87 1012 10 16 0.00 0.00
6:53 pm 18:53 Sunny 102 38.9 57 13.9 23 23 SE 10 17 29.87 1012 10 16 0.00 0.00
7:53 pm 19:53 Clear 100 37.8 56 13.3 23 23 E 6 9 29.90 1012 10 16 0.00 0.00
8:53 pm 20:53 Clear 98 36.7 57 13.9 25 25 E 5 7 29.93 1014 10 16 0.00 0.00
9:53 pm 21:53 Clear 98 36.7 55 12.8 24 24 NW 14 22 29.96 1015 10 16 0.00 0.00
10:53 pm 22:53 Clear 96 35.6 55 12.8 25 25 Calm 29.95 1014 10 16 0.00 0.00
11:53 pm 23:53 Clear 93 33.9 55 12.8 28 28 NW 3 6 29.93 1014 10 16 0.00 0.00

Powered by AerisWeather